Time,TemperatureF,DewpointF,PressureIn,WindDirection,WindDirectionDegrees,WindSpeedMPH,WindSpeedGustMPH,Humidity,HourlyPrecipIn,Conditions,Clouds,dailyrainin,SoftwareType,DateUTC
2013-02-14 00:00:00,39.3,36.6,30.05,SSW,211,1.0,4.0,90,0.00,,FEW035,0.08,VWS V14.01,2013-02-14 06:00:00,
2013-02-14 00:05:00,39.1,36.4,30.05,SW,226,4.0,5.0,90,0.00,,CLR,0.00,VWS V14.01,2013-02-14 06:05:00,
2013-02-14 00:10:00,39.1,36.4,30.05,SW,217,2.0,4.0,90,0.00,,CLR,0.00,VWS V14.01,2013-02-14 06:10:00,
2013-02-14 00:15:00,39.0,36.3,30.05,SW,217,1.0,4.0,90,0.00,,CLR,0.00,VWS V14.01,2013-02-14 06:15:00,
2013-02-14 00:20:00,38.9,36.2,30.04,SW,235,0.0,4.0,90,0.00,,CLR,0.00,VWS V14.01,2013-02-14 06:20:00,
2013-02-14 00:25:00,38.9,36.2,30.04,SW,223,2.0,5.0,90,0.00,,CLR,0.00,VWS V14.01,2013-02-14 06:25:00,
2013-02-14 00:30:00,38.9,36.2,30.05,WSW,238,2.0,4.0,90,0.00,,CLR,0.00,VWS V14.01,2013-02-14 06:30:00,
2013-02-14 00:35:00,38.8,36.1,30.05,SW,227,0.0,2.0,90,0.00,,CLR,0.00,VWS V14.01,2013-02-14 06:35:00,
2013-02-14 00:40:00,38.8,36.4,30.05,SW,221,1.0,4.0,91,0.00,,CLR,0.00,VWS V14.01,2013-02-14 06:40:00,
2013-02-14 00:45:00,38.7,36.0,30.05,SSW,207,4.0,4.0,90,0.00,,CLR,0.00,VWS V14.01,2013-02-14 06:45:00,
2013-02-14 00:50:00,38.7,36.3,30.05,SSW,205,2.0,5.0,91,0.00,,CLR,0.00,VWS V14.01,2013-02-14 06:50:00,
2013-02-14 00:55:00,38.7,36.3,30.05,WSW,238,0.0,4.0,91,0.00,,CLR,0.00,VWS V14.01,2013-02-14 06:55:00,
2013-02-14 01:00:00,38.7,36.3,30.05,SW,224,0.0,2.0,91,0.00,,CLR,0.00,VWS V14.01,2013-02-14 07:00:00,
2013-02-14 01:05:00,38.6,36.2,30.05,SW,233,0.0,5.0,91,0.00,,CLR,0.00,VWS V14.01,2013-02-14 07:05:00,
2013-02-14 01:10:00,38.5,36.1,30.05,SW,221,3.0,3.0,91,0.00,,CLR,0.00,VWS V14.01,2013-02-14 07:10:00,
2013-02-14 01:15:00,38.6,36.2,30.05,SW,214,1.0,3.0,91,0.00,,CLR,0.00,VWS V14.01,2013-02-14 07:15:00,
2013-02-14 01:20:00,38.5,36.1,30.05,SW,215,0.0,3.0,91,0.00,,CLR,0.00,VWS V14.01,2013-02-14 07:20:00,
2013-02-14 01:25:00,38.3,35.9,30.05,SSW,194,0.0,2.0,91,0.00,,CLR,0.00,VWS V14.01,2013-02-14 07:25:00,
2013-02-14 01:30:00,38.3,35.9,30.05,SW,217,2.0,4.0,91,0.00,,CLR,0.00,VWS V14.01,2013-02-14 07:30:00,
2013-02-14 01:35:00,38.4,36.0,30.05,SSW,205,2.0,4.0,91,0.00,,CLR,0.00,VWS V14.01,2013-02-14 07:35:00,
2013-02-14 01:40:00,38.3,35.9,30.05,SW,222,3.0,4.0,91,0.00,,CLR,0.00,VWS V14.01,2013-02-14 07:40:00,
2013-02-14 01:45:00,38.2,35.8,30.05,SW,228,0.0,3.0,91,0.00,,CLR,0.00,VWS V14.01,2013-02-14 07:45:00,
2013-02-14 01:50:00,38.2,35.8,30.05,SW,214,0.0,2.0,91,0.00,,CLR,0.00,VWS V14.01,2013-02-14 07:50:00,
2013-02-14 01:55:00,38.0,35.6,30.05,SSW,205,1.0,2.0,91,0.00,,CLR,0.00,VWS V14.01,2013-02-14 07:55:00,
2013-02-14 02:00:00,38.1,36.0,30.05,SW,235,0.0,2.0,92,0.00,,CLR,0.00,VWS V14.01,2013-02-14 08:00:00,
2013-02-14 02:05:00,38.2,36.1,30.05,WSW,241,1.0,6.0,92,0.00,,CLR,0.00,VWS V14.01,2013-02-14 08:05:00,
2013-02-14 02:10:00,38.2,36.1,30.05,SW,228,0.0,4.0,92,0.00,,CLR,0.00,VWS V14.01,2013-02-14 08:10:00,
2013-02-14 02:15:00,38.2,36.1,30.05,SSW,198,0.0,4.0,92,0.00,,CLR,0.00,VWS V14.01,2013-02-14 08:15:00,
2013-02-14 02:20:00,38.2,36.1,30.05,SSW,205,3.0,3.0,92,0.00,,CLR,0.00,VWS V14.01,2013-02-14 08:20:00,
2013-02-14 02:25:00,38.3,36.2,30.05,SW,221,0.0,3.0,92,0.00,,CLR,0.00,VWS V14.01,2013-02-14 08:25:00,
2013-02-14 02:30:00,38.1,35.7,30.05,South,187,1.0,2.0,91,0.00,,CLR,0.00,VWS V14.01,2013-02-14 08:30:00,
2013-02-14 02:35:00,38.2,36.1,30.05,SW,225,2.0,5.0,92,0.00,,CLR,0.00,VWS V14.01,2013-02-14 08:35:00,
2013-02-14 02:40:00,38.2,36.1,30.05,SW,234,0.0,6.0,92,0.00,,CLR,0.00,VWS V14.01,2013-02-14 08:40:00,
2013-02-14 02:45:00,38.2,36.1,30.05,SW,219,0.0,4.0,92,0.00,,CLR,0.00,VWS V14.01,2013-02-14 08:45:00,
2013-02-14 02:50:00,38.0,35.9,30.04,SW,217,1.0,5.0,92,0.00,,CLR,0.00,VWS V14.01,2013-02-14 08:50:00,
2013-02-14 02:55:00,38.0,35.9,30.04,SW,231,0.0,5.0,92,0.00,,CLR,0.00,VWS V14.01,2013-02-14 08:55:00,
2013-02-14 03:00:00,38.1,36.0,30.04,SW,219,3.0,3.0,92,0.00,,CLR,0.00,VWS V14.01,2013-02-14 09:00:00,
2013-02-14 03:05:00,38.0,35.9,30.04,SSW,203,2.0,5.0,92,0.00,,CLR,0.00,VWS V14.01,2013-02-14 09:05:00,
2013-02-14 03:10:00,38.0,35.9,30.03,SW,219,3.0,5.0,92,0.00,,CLR,0.00,VWS V14.01,2013-02-14 09:10:00,
2013-02-14 03:15:00,37.9,35.8,30.03,SW,229,0.0,2.0,92,0.00,,CLR,0.00,VWS V14.01,2013-02-14 09:15:00,
2013-02-14 03:20:00,37.9,35.8,30.03,SSW,207,0.0,4.0,92,0.00,,CLR,0.00,VWS V14.01,2013-02-14 09:20:00,
2013-02-14 03:25:00,37.8,35.7,30.03,SSW,195,0.0,6.0,92,0.00,,CLR,0.00,VWS V14.01,2013-02-14 09:25:00,
2013-02-14 03:30:00,37.6,35.5,30.03,SW,219,2.0,3.0,92,0.00,,CLR,0.00,VWS V14.01,2013-02-14 09:30:00,
2013-02-14 03:35:00,37.6,35.5,30.03,SW,236,0.0,4.0,92,0.00,,CLR,0.00,VWS V14.01,2013-02-14 09:35:00,
2013-02-14 03:40:00,37.5,35.4,30.03,SSW,209,1.0,2.0,92,0.00,,CLR,0.00,VWS V14.01,2013-02-14 09:40:00,
2013-02-14 03:45:00,37.5,35.4,30.04,SW,235,0.0,3.0,92,0.00,,CLR,0.00,VWS V14.01,2013-02-14 09:45:00,
2013-02-14 03:50:00,37.4,35.3,30.03,SW,236,0.0,1.0,92,0.00,,CLR,0.00,VWS V14.01,2013-02-14 09:50:00,
2013-02-14 03:55:00,37.4,35.3,30.03,SW,220,0.0,3.0,92,0.00,,CLR,0.00,VWS V14.01,2013-02-14 09:55:00,
2013-02-14 04:00:00,37.3,35.2,30.03,SW,220,1.0,1.0,92,0.00,,CLR,0.00,VWS V14.01,2013-02-14 10:00:00,
2013-02-14 04:05:00,37.3,35.2,30.03,SSW,211,1.0,2.0,92,0.00,,CLR,0.00,VWS V14.01,2013-02-14 10:05:00,
2013-02-14 04:10:00,37.2,35.1,30.03,SSW,211,0.0,2.0,92,0.00,,CLR,0.00,VWS V14.01,2013-02-14 10:10:00,
2013-02-14 04:15:00,37.0,34.9,30.03,SSW,211,0.0,0.0,92,0.00,,CLR,0.00,VWS V14.01,2013-02-14 10:15:00,
2013-02-14 04:20:00,37.0,35.2,30.03,SSW,213,2.0,2.0,93,0.00,,CLR,0.00,VWS V14.01,2013-02-14 10:20:00,
2013-02-14 04:25:00,36.9,34.8,30.03,South,180,0.0,2.0,92,0.00,,CLR,0.00,VWS V14.01,2013-02-14 10:25:00,
2013-02-14 04:30:00,36.9,35.1,30.03,SW,215,0.0,2.0,93,0.00,,CLR,0.00,VWS V14.01,2013-02-14 10:30:00,
2013-02-14 04:35:00,37.0,35.2,30.03,SW,215,0.0,0.0,93,0.00,,CLR,0.00,VWS V14.01,2013-02-14 10:35:00,
2013-02-14 04:40:00,36.8,35.0,30.03,SW,215,0.0,1.0,93,0.00,,CLR,0.00,VWS V14.01,2013-02-14 10:40:00,
2013-02-14 04:45:00,36.7,34.9,30.03,SW,215,0.0,0.0,93,0.00,,CLR,0.00,VWS V14.01,2013-02-14 10:45:00,
2013-02-14 04:50:00,36.6,34.8,30.03,SW,215,0.0,0.0,93,0.00,,CLR,0.00,VWS V14.01,2013-02-14 10:50:00,
2013-02-14 04:55:00,36.4,34.6,30.03,SW,215,0.0,0.0,93,0.00,,CLR,0.00,VWS V14.01,2013-02-14 10:55:00,
2013-02-14 05:00:00,36.3,34.5,30.03,SW,215,0.0,0.0,93,0.00,,CLR,0.00,VWS V14.01,2013-02-14 11:00:00,
2013-02-14 05:05:00,36.2,34.4,30.03,SW,215,0.0,0.0,93,0.00,,CLR,0.00,VWS V14.01,2013-02-14 11:05:00,
2013-02-14 05:10:00,36.1,34.3,30.03,SW,215,0.0,0.0,93,0.00,,CLR,0.00,VWS V14.01,2013-02-14 11:10:00,
2013-02-14 05:15:00,36.0,34.4,30.03,SW,215,0.0,0.0,94,0.00,,CLR,0.00,VWS V14.01,2013-02-14 11:15:00,
2013-02-14 05:20:00,35.8,34.0,30.03,SW,215,0.0,0.0,93,0.00,,CLR,0.00,VWS V14.01,2013-02-14 11:20:00,
2013-02-14 05:25:00,35.9,34.3,30.03,SW,215,0.0,1.0,94,0.00,,CLR,0.00,VWS V14.01,2013-02-14 11:25:00,
2013-02-14 05:30:00,35.8,34.2,30.03,SSW,209,0.0,2.0,94,0.00,,CLR,0.00,VWS V14.01,2013-02-14 11:30:00,
2013-02-14 05:35:00,35.8,34.2,30.03,SSW,207,0.0,0.0,94,0.00,,CLR,0.00,VWS V14.01,2013-02-14 11:35:00,
2013-02-14 05:40:00,35.9,34.3,30.03,SSW,207,0.0,1.0,94,0.00,,CLR,0.00,VWS V14.01,2013-02-14 11:40:00,
2013-02-14 05:45:00,35.9,34.3,30.04,SSW,207,0.0,0.0,94,0.00,,CLR,0.00,VWS V14.01,2013-02-14 11:45:00,
2013-02-14 05:50:00,35.8,34.2,30.04,SSW,207,0.0,0.0,94,0.00,,CLR,0.00,VWS V14.01,2013-02-14 11:50:00,
2013-02-14 05:55:00,35.7,34.2,30.03,SSW,207,0.0,0.0,94,0.00,,CLR,0.00,VWS V14.01,2013-02-14 11:55:00,
2013-02-14 06:00:00,35.7,34.2,30.03,SW,225,0.0,2.0,94,0.00,,CLR,0.00,VWS V14.01,2013-02-14 12:00:00,
2013-02-14 06:05:00,35.8,34.2,30.04,SSW,209,1.0,3.0,94,0.00,,CLR,0.00,VWS V14.01,2013-02-14 12:05:00,
2013-02-14 06:10:00,35.8,34.2,30.04,SSW,209,0.0,1.0,94,0.00,,CLR,0.00,VWS V14.01,2013-02-14 12:10:00,
2013-02-14 06:15:00,35.8,34.2,30.04,SW,219,0.0,2.0,94,0.00,,CLR,0.00,VWS V14.01,2013-02-14 12:15:00,
2013-02-14 06:20:00,35.8,34.2,30.04,WSW,238,0.0,2.0,94,0.00,,CLR,0.00,VWS V14.01,2013-02-14 12:20:00,
2013-02-14 06:25:00,35.8,34.2,30.04,WSW,237,0.0,2.0,94,0.00,,CLR,0.00,VWS V14.01,2013-02-14 12:25:00,
2013-02-14 06:30:00,35.7,34.2,30.04,WSW,237,0.0,0.0,94,0.00,,CLR,0.00,VWS V14.01,2013-02-14 12:30:00,
2013-02-14 06:35:00,35.8,34.2,30.05,WSW,237,0.0,1.0,94,0.00,,CLR,0.00,VWS V14.01,2013-02-14 12:35:00,
2013-02-14 06:40:00,35.7,34.2,30.05,WSW,237,0.0,1.0,94,0.00,,CLR,0.00,VWS V14.01,2013-02-14 12:40:00,
2013-02-14 06:45:00,35.7,34.2,30.05,SW,222,0.0,2.0,94,0.00,,CLR,0.00,VWS V14.01,2013-02-14 12:45:00,
2013-02-14 06:50:00,35.6,34.0,30.05,WSW,240,0.0,3.0,94,0.00,,CLR,0.00,VWS V14.01,2013-02-14 12:50:00,
2013-02-14 06:55:00,35.6,34.0,30.05,WSW,239,0.0,1.0,94,0.00,,CLR,0.00,VWS V14.01,2013-02-14 12:55:00,
2013-02-14 07:00:00,35.6,34.0,30.06,SSW,210,2.0,3.0,94,0.00,,CLR,0.00,VWS V14.01,2013-02-14 13:00:00,
2013-02-14 07:05:00,35.9,34.6,30.06,SW,216,0.0,3.0,95,0.00,,CLR,0.00,VWS V14.01,2013-02-14 13:05:00,
2013-02-14 07:10:00,36.1,34.8,30.06,SSW,209,0.0,2.0,95,0.00,,CLR,0.00,VWS V14.01,2013-02-14 13:10:00,
2013-02-14 07:15:00,36.3,35.0,30.06,SW,229,2.0,3.0,95,0.00,,CLR,0.00,VWS V14.01,2013-02-14 13:15:00,
2013-02-14 07:20:00,36.5,35.2,30.07,SSW,212,0.0,3.0,95,0.00,,CLR,0.00,VWS V14.01,2013-02-14 13:20:00,
2013-02-14 07:25:00,36.8,35.5,30.07,SW,220,0.0,3.0,95,0.00,,CLR,0.00,VWS V14.01,2013-02-14 13:25:00,
2013-02-14 07:30:00,37.0,35.7,30.07,WSW,245,1.0,3.0,95,0.00,,CLR,0.00,VWS V14.01,2013-02-14 13:30:00,
2013-02-14 07:35:00,37.3,36.0,30.07,WSW,248,3.0,3.0,95,0.00,,CLR,0.00,VWS V14.01,2013-02-14 13:35:00,
2013-02-14 07:40:00,37.7,36.4,30.08,SW,236,2.0,5.0,95,0.00,,CLR,0.00,VWS V14.01,2013-02-14 13:40:00,
2013-02-14 07:45:00,38.1,36.5,30.08,SW,227,3.0,6.0,94,0.00,,CLR,0.00,VWS V14.01,2013-02-14 13:45:00,
2013-02-14 07:50:00,38.6,37.0,30.08,WSW,240,2.0,6.0,94,0.00,,CLR,0.00,VWS V14.01,2013-02-14 13:50:00,
2013-02-14 07:55:00,39.0,37.2,30.08,SW,230,0.0,3.0,93,0.00,,CLR,0.00,VWS V14.01,2013-02-14 13:55:00,
2013-02-14 08:00:00,39.5,37.7,30.08,SSW,203,2.0,3.0,93,0.00,,CLR,0.00,VWS V14.01,2013-02-14 14:00:00,
2013-02-14 08:05:00,40.1,38.0,30.08,WSW,242,4.0,6.0,92,0.00,,CLR,0.00,VWS V14.01,2013-02-14 14:05:00,
2013-02-14 08:10:00,40.6,38.2,30.08,SSW,209,0.0,6.0,91,0.00,,CLR,0.00,VWS V14.01,2013-02-14 14:10:00,
2013-02-14 08:15:00,41.3,38.6,30.08,SW,217,6.0,8.0,90,0.00,,CLR,0.00,VWS V14.01,2013-02-14 14:15:00,
2013-02-14 08:20:00,41.8,39.1,30.09,WSW,239,1.0,4.0,90,0.00,,CLR,0.00,VWS V14.01,2013-02-14 14:20:00,
2013-02-14 08:25:00,42.5,39.5,30.09,SW,223,2.0,5.0,89,0.00,,CLR,0.00,VWS V14.01,2013-02-14 14:25:00,
2013-02-14 08:30:00,43.2,39.9,30.09,SW,220,2.0,5.0,88,0.00,,CLR,0.00,VWS V14.01,2013-02-14 14:30:00,
2013-02-14 08:35:00,43.8,40.2,30.09,SW,227,4.0,5.0,87,0.00,,CLR,0.00,VWS V14.01,2013-02-14 14:35:00,
2013-02-14 08:40:00,44.2,40.3,30.09,SW,234,3.0,5.0,86,0.00,,CLR,0.00,VWS V14.01,2013-02-14 14:40:00,
2013-02-14 08:45:00,44.8,40.9,30.09,WSW,242,0.0,6.0,86,0.00,,CLR,0.00,VWS V14.01,2013-02-14 14:45:00,
2013-02-14 08:50:00,45.4,40.9,30.09,SW,229,3.0,7.0,84,0.00,,CLR,0.00,VWS V14.01,2013-02-14 14:50:00,
2013-02-14 08:55:00,45.8,40.9,30.08,SW,217,1.0,6.0,83,0.00,,CLR,0.00,VWS V14.01,2013-02-14 14:55:00,
2013-02-14 09:00:00,46.2,41.0,30.08,SW,225,0.0,7.0,82,0.00,,CLR,0.00,VWS V14.01,2013-02-14 15:00:00,
2013-02-14 09:05:00,46.9,41.7,30.08,SW,225,0.0,6.0,82,0.00,,CLR,0.00,VWS V14.01,2013-02-14 15:05:00,
2013-02-14 09:10:00,47.4,41.9,30.08,SSW,213,4.0,6.0,81,0.00,,CLR,0.00,VWS V14.01,2013-02-14 15:10:00,
2013-02-14 09:15:00,48.3,42.1,30.08,SW,226,5.0,6.0,79,0.00,,CLR,0.00,VWS V14.01,2013-02-14 15:15:00,
2013-02-14 09:20:00,48.7,42.2,30.08,WSW,239,1.0,5.0,78,0.00,,CLR,0.00,VWS V14.01,2013-02-14 15:20:00,
2013-02-14 09:25:00,49.4,42.5,30.08,SW,216,1.0,6.0,77,0.00,,CLR,0.00,VWS V14.01,2013-02-14 15:25:00,
2013-02-14 09:30:00,49.5,42.3,30.08,SSW,207,3.0,5.0,76,0.00,,CLR,0.00,VWS V14.01,2013-02-14 15:30:00,
2013-02-14 09:35:00,49.6,42.0,30.07,SSE,166,4.0,6.0,75,0.00,,CLR,0.00,VWS V14.01,2013-02-14 15:35:00,
2013-02-14 09:40:00,50.4,42.4,30.07,SW,220,1.0,4.0,74,0.00,,CLR,0.00,VWS V14.01,2013-02-14 15:40:00,
2013-02-14 09:45:00,51.4,42.7,30.07,West,271,0.0,7.0,72,0.00,,CLR,0.00,VWS V14.01,2013-02-14 15:45:00,
2013-02-14 09:50:00,51.7,42.2,30.07,SW,226,2.0,6.0,70,0.00,,CLR,0.00,VWS V14.01,2013-02-14 15:50:00,
2013-02-14 09:55:00,52.9,43.4,30.07,WNW,300,2.0,7.0,70,0.00,,CLR,0.00,VWS V14.01,2013-02-14 15:55:00,
2013-02-14 10:00:00,53.1,42.5,30.07,WSW,253,0.0,8.0,67,0.00,,CLR,0.00,VWS V14.01,2013-02-14 16:00:00,
2013-02-14 10:05:00,53.7,43.0,30.07,WSW,240,7.0,7.0,67,0.00,,CLR,0.00,VWS V14.01,2013-02-14 16:05:00,
2013-02-14 10:10:00,54.3,42.8,30.07,SW,227,0.0,9.0,65,0.00,,CLR,0.00,VWS V14.01,2013-02-14 16:10:00,
2013-02-14 10:15:00,54.1,41.8,30.07,SW,217,5.0,8.0,63,0.00,,CLR,0.00,VWS V14.01,2013-02-14 16:15:00,
2013-02-14 10:20:00,54.5,41.3,30.07,SW,221,9.0,11.0,61,0.00,,CLR,0.00,VWS V14.01,2013-02-14 16:20:00,
2013-02-14 10:25:00,54.9,41.3,30.07,SW,236,5.0,10.0,60,0.00,,CLR,0.00,VWS V14.01,2013-02-14 16:25:00,
2013-02-14 10:30:00,55.2,41.1,30.07,SW,227,7.0,8.0,59,0.00,,CLR,0.00,VWS V14.01,2013-02-14 16:30:00,
2013-02-14 10:35:00,55.5,41.0,30.07,WNW,293,3.0,10.0,58,0.00,,CLR,0.00,VWS V14.01,2013-02-14 16:35:00,
2013-02-14 10:40:00,56.4,40.9,30.07,SSW,198,2.0,8.0,56,0.00,,CLR,0.00,VWS V14.01,2013-02-14 16:40:00,
2013-02-14 10:45:00,56.6,40.6,30.07,SSW,205,6.0,9.0,55,0.00,,CLR,0.00,VWS V14.01,2013-02-14 16:45:00,
2013-02-14 10:50:00,57.6,40.6,30.07,West,275,14.0,14.0,53,0.00,,CLR,0.00,VWS V14.01,2013-02-14 16:50:00,
2013-02-14 10:55:00,57.8,40.3,30.07,WNW,283,4.0,11.0,52,0.00,,CLR,0.00,VWS V14.01,2013-02-14 16:55:00,
2013-02-14 11:00:00,57.3,38.8,30.07,SW,233,6.0,9.0,50,0.00,,CLR,0.00,VWS V14.01,2013-02-14 17:00:00,
2013-02-14 11:05:00,57.4,38.4,30.07,SW,222,4.0,13.0,49,0.00,,CLR,0.00,VWS V14.01,2013-02-14 17:05:00,
2013-02-14 11:10:00,57.9,39.9,30.06,West,279,5.0,10.0,51,0.00,,CLR,0.00,VWS V14.01,2013-02-14 17:10:00,
2013-02-14 11:15:00,58.4,39.3,30.06,WSW,258,3.0,9.0,49,0.00,,CLR,0.00,VWS V14.01,2013-02-14 17:15:00,
2013-02-14 11:20:00,58.5,38.9,30.06,West,269,8.0,12.0,48,0.00,,CLR,0.00,VWS V14.01,2013-02-14 17:20:00,
2013-02-14 11:25:00,58.4,38.8,30.06,WNW,298,4.0,8.0,48,0.00,,CLR,0.00,VWS V14.01,2013-02-14 17:25:00,
2013-02-14 11:30:00,58.7,39.1,30.06,NW,317,6.0,11.0,48,0.00,,CLR,0.00,VWS V14.01,2013-02-14 17:30:00,
2013-02-14 11:35:00,58.9,38.7,30.06,SSE,161,4.0,12.0,47,0.00,,CLR,0.00,VWS V14.01,2013-02-14 17:35:00,
2013-02-14 11:40:00,58.4,38.8,30.06,West,277,4.0,10.0,48,0.00,,CLR,0.00,VWS V14.01,2013-02-14 17:40:00,
2013-02-14 11:45:00,59.2,39.5,30.06,WNW,285,3.0,11.0,48,0.00,,CLR,0.00,VWS V14.01,2013-02-14 17:45:00,
2013-02-14 11:50:00,59.4,39.7,30.06,West,259,1.0,10.0,48,0.00,,CLR,0.00,VWS V14.01,2013-02-14 17:50:00,
2013-02-14 11:55:00,60.1,39.3,30.06,NW,313,6.0,11.0,46,0.00,,CLR,0.00,VWS V14.01,2013-02-14 17:55:00,
2013-02-14 12:00:00,60.5,39.1,30.05,West,275,3.0,10.0,45,0.00,,CLR,0.00,VWS V14.01,2013-02-14 18:00:00,
2013-02-14 12:05:00,59.5,38.2,30.05,West,268,7.0,9.0,45,0.00,,CLR,0.00,VWS V14.01,2013-02-14 18:05:00,
2013-02-14 12:10:00,59.9,38.0,30.05,West,269,5.0,11.0,44,0.00,,FEW250,0.00,VWS V14.01,2013-02-14 18:10:00,
2013-02-14 12:15:00,60.3,39.5,30.05,WNW,286,3.0,9.0,46,0.00,,FEW250,0.00,VWS V14.01,2013-02-14 18:15:00,
2013-02-14 12:20:00,61.2,39.7,30.05,WSW,254,5.0,8.0,45,0.00,,FEW250,0.00,VWS V14.01,2013-02-14 18:20:00,
2013-02-14 12:25:00,61.3,38.6,30.05,SE,138,6.0,15.0,43,0.00,,FEW250,0.00,VWS V14.01,2013-02-14 18:25:00,
2013-02-14 12:30:00,60.7,38.7,30.04,NW,311,5.0,12.0,44,0.00,,FEW250,0.00,VWS V14.01,2013-02-14 18:30:00,
2013-02-14 12:35:00,60.8,39.3,30.04,NW,308,1.0,7.0,45,0.00,,FEW250,0.00,VWS V14.01,2013-02-14 18:35:00,
2013-02-14 12:40:00,61.4,37.5,30.04,SW,232,1.0,12.0,41,0.00,,FEW250,0.00,VWS V14.01,2013-02-14 18:40:00,
2013-02-14 12:45:00,61.2,38.5,30.03,NW,307,4.0,10.0,43,0.00,,FEW250,0.00,VWS V14.01,2013-02-14 18:45:00,
2013-02-14 12:50:00,61.9,38.6,30.03,WSW,239,2.0,14.0,42,0.00,,FEW250,0.00,VWS V14.01,2013-02-14 18:50:00,
2013-02-14 12:55:00,60.9,38.3,30.03,WSW,254,6.0,8.0,43,0.00,,FEW250,0.00,VWS V14.01,2013-02-14 18:55:00,
2013-02-14 13:00:00,61.1,37.9,30.03,SW,223,8.0,10.0,42,0.00,,FEW250,0.00,VWS V14.01,2013-02-14 19:00:00,
2013-02-14 13:05:00,60.8,37.6,30.03,SSW,209,3.0,10.0,42,0.00,,FEW250,0.00,VWS V14.01,2013-02-14 19:05:00,
2013-02-14 13:10:00,61.6,37.7,30.03,WNW,284,6.0,13.0,41,0.00,,FEW250,0.00,VWS V14.01,2013-02-14 19:10:00,
2013-02-14 13:15:00,62.1,38.8,30.03,West,259,6.0,10.0,42,0.00,,FEW250,0.00,VWS V14.01,2013-02-14 19:15:00,
2013-02-14 13:20:00,61.2,38.0,30.03,NW,308,3.0,10.0,42,0.00,,FEW250,0.00,VWS V14.01,2013-02-14 19:20:00,
2013-02-14 13:25:00,61.5,37.6,30.03,SW,215,5.0,10.0,41,0.00,,FEW250,0.00,VWS V14.01,2013-02-14 19:25:00,
2013-02-14 13:30:00,62.2,38.2,30.03,WNW,288,7.0,9.0,41,0.00,,FEW250,0.00,VWS V14.01,2013-02-14 19:30:00,
2013-02-14 13:35:00,62.5,37.9,30.03,SSW,201,7.0,9.0,40,0.00,,FEW250,0.00,VWS V14.01,2013-02-14 19:35:00,
2013-02-14 13:40:00,62.0,37.4,30.03,West,270,4.0,15.0,40,0.00,,FEW250,0.00,VWS V14.01,2013-02-14 19:40:00,
2013-02-14 13:45:00,62.0,37.4,30.03,WSW,248,0.0,9.0,40,0.00,,FEW250,0.00,VWS V14.01,2013-02-14 19:45:00,
2013-02-14 13:50:00,62.7,38.7,30.03,WNW,290,6.0,10.0,41,0.00,,FEW250,0.00,VWS V14.01,2013-02-14 19:50:00,
2013-02-14 13:55:00,63.0,37.0,30.03,NW,319,16.0,16.0,38,0.00,,FEW250,0.00,VWS V14.01,2013-02-14 19:55:00,
2013-02-14 14:00:00,62.5,37.2,30.03,West,280,8.0,10.0,39,0.00,,FEW250,0.00,VWS V14.01,2013-02-14 20:00:00,
2013-02-14 14:05:00,62.0,36.1,30.03,West,278,2.0,13.0,38,0.00,,FEW250,0.00,VWS V14.01,2013-02-14 20:05:00,
2013-02-14 14:10:00,61.8,37.2,30.03,WSW,251,13.0,13.0,40,0.00,,FEW250,0.00,VWS V14.01,2013-02-14 20:10:00,
2013-02-14 14:15:00,61.6,35.8,30.02,West,266,7.0,10.0,38,0.00,,FEW250,0.00,VWS V14.01,2013-02-14 20:15:00,
2013-02-14 14:20:00,62.3,37.0,30.02,WNW,297,3.0,6.0,39,0.00,,FEW250,0.00,VWS V14.01,2013-02-14 20:20:00,
2013-02-14 14:25:00,63.1,37.1,30.02,West,280,2.0,10.0,38,0.00,,FEW250,0.00,VWS V14.01,2013-02-14 20:25:00,
2013-02-14 14:30:00,62.6,36.0,30.02,NW,313,6.0,12.0,37,0.00,,FEW250,0.00,VWS V14.01,2013-02-14 20:30:00,
2013-02-14 14:35:00,62.7,36.8,30.02,West,263,5.0,13.0,38,0.00,,FEW250,0.00,VWS V14.01,2013-02-14 20:35:00,
2013-02-14 14:40:00,62.9,36.9,30.02,West,262,4.0,8.0,38,0.00,,FEW250,0.00,VWS V14.01,2013-02-14 20:40:00,
2013-02-14 14:45:00,62.5,36.6,30.02,West,265,9.0,12.0,38,0.00,,FEW250,0.00,VWS V14.01,2013-02-14 20:45:00,
2013-02-14 14:50:00,62.3,37.0,30.02,WNW,286,2.0,14.0,39,0.00,,FEW250,0.00,VWS V14.01,2013-02-14 20:50:00,
2013-02-14 14:55:00,62.2,38.2,30.02,WNW,288,3.0,10.0,41,0.00,,FEW250,0.00,VWS V14.01,2013-02-14 20:55:00,
2013-02-14 15:00:00,62.1,36.9,30.02,West,264,1.0,9.0,39,0.00,,FEW250,0.00,VWS V14.01,2013-02-14 21:00:00,
2013-02-14 15:05:00,62.0,37.4,30.02,West,275,10.0,10.0,40,0.00,,FEW250,0.00,VWS V14.01,2013-02-14 21:05:00,
2013-02-14 15:10:00,62.5,37.2,30.02,SW,226,6.0,12.0,39,0.00,,FEW250,0.00,VWS V14.01,2013-02-14 21:10:00,
2013-02-14 15:15:00,62.3,37.7,30.02,SW,227,5.0,14.0,40,0.00,,FEW250,0.00,VWS V14.01,2013-02-14 21:15:00,
2013-02-14 15:20:00,62.0,38.7,30.02,SW,234,2.0,8.0,42,0.00,,FEW250,0.00,VWS V14.01,2013-02-14 21:20:00,
2013-02-14 15:25:00,61.5,38.8,30.02,WSW,243,6.0,11.0,43,0.00,,FEW250,0.00,VWS V14.01,2013-02-14 21:25:00,
2013-02-14 15:30:00,61.8,38.5,30.02,WNW,283,2.0,7.0,42,0.00,,FEW250,0.00,VWS V14.01,2013-02-14 21:30:00,
2013-02-14 15:35:00,61.9,39.2,30.02,SW,223,9.0,10.0,43,0.00,,FEW250,0.00,VWS V14.01,2013-02-14 21:35:00,
2013-02-14 15:40:00,61.4,39.3,30.02,South,184,0.0,9.0,44,0.00,,FEW250,0.00,VWS V14.01,2013-02-14 21:40:00,
2013-02-14 15:45:00,61.7,38.4,30.02,WSW,237,5.0,6.0,42,0.00,,FEW250,0.00,VWS V14.01,2013-02-14 21:45:00,
2013-02-14 15:50:00,61.3,38.0,30.02,West,279,5.0,8.0,42,0.00,,FEW250,0.00,VWS V14.01,2013-02-14 21:50:00,
2013-02-14 15:55:00,61.1,38.5,30.02,SW,225,6.0,10.0,43,0.00,,FEW250,0.00,VWS V14.01,2013-02-14 21:55:00,
2013-02-14 16:00:00,60.7,39.3,30.02,SW,236,4.0,10.0,45,0.00,,FEW250,0.00,VWS V14.01,2013-02-14 22:00:00,
2013-02-14 16:05:00,61.1,37.9,30.02,WNW,293,2.0,9.0,42,0.00,,FEW250,0.00,VWS V14.01,2013-02-14 22:05:00,
2013-02-14 16:10:00,61.2,38.5,30.02,West,279,7.0,13.0,43,0.00,,FEW250,0.00,VWS V14.01,2013-02-14 22:10:00,
2013-02-14 16:15:00,60.9,37.1,30.02,NW,308,3.0,12.0,41,0.00,,FEW250,0.00,VWS V14.01,2013-02-14 22:15:00,
2013-02-14 16:20:00,60.6,37.4,30.02,WNW,289,1.0,8.0,42,0.00,,FEW250,0.00,VWS V14.01,2013-02-14 22:20:00,
2013-02-14 16:25:00,60.4,36.6,30.02,West,269,5.0,8.0,41,0.00,,FEW250,0.00,VWS V14.01,2013-02-14 22:25:00,
2013-02-14 16:30:00,60.3,37.1,30.02,SSW,208,4.0,10.0,42,0.00,,FEW250,0.00,VWS V14.01,2013-02-14 22:30:00,
2013-02-14 16:35:00,60.2,37.0,30.02,SW,229,6.0,8.0,42,0.00,,FEW250,0.00,VWS V14.01,2013-02-14 22:35:00,
2013-02-14 16:40:00,60.0,37.5,30.02,SW,221,5.0,8.0,43,0.00,,FEW250,0.00,VWS V14.01,2013-02-14 22:40:00,
2013-02-14 16:45:00,59.9,36.8,30.02,SW,230,7.0,9.0,42,0.00,,FEW250,0.00,VWS V14.01,2013-02-14 22:45:00,
2013-02-14 16:50:00,59.5,37.0,30.02,WNW,286,1.0,7.0,43,0.00,,FEW250,0.00,VWS V14.01,2013-02-14 22:50:00,
2013-02-14 16:55:00,59.3,36.8,30.03,SSW,209,4.0,7.0,43,0.00,,FEW250,0.00,VWS V14.01,2013-02-14 22:55:00,
2013-02-14 17:00:00,59.1,36.7,30.03,SSW,198,4.0,10.0,43,0.00,,FEW250,0.00,VWS V14.01,2013-02-14 23:00:00,
2013-02-14 17:05:00,58.9,37.0,30.03,SW,228,2.0,7.0,44,0.00,,FEW250,0.00,VWS V14.01,2013-02-14 23:05:00,
2013-02-14 17:10:00,58.7,37.4,30.03,WSW,250,6.0,6.0,45,0.00,,FEW250,0.00,VWS V14.01,2013-02-14 23:10:00,
2013-02-14 17:15:00,58.4,37.2,30.03,WNW,293,4.0,6.0,45,0.00,,FEW250,0.00,VWS V14.01,2013-02-14 23:15:00,
2013-02-14 17:20:00,58.1,37.5,30.03,WSW,254,1.0,6.0,46,0.00,,FEW250,0.00,VWS V14.01,2013-02-14 23:20:00,
2013-02-14 17:25:00,57.8,37.2,30.03,West,268,3.0,4.0,46,0.00,,FEW250,0.00,VWS V14.01,2013-02-14 23:25:00,
2013-02-14 17:30:00,57.7,37.6,30.03,SW,217,7.0,7.0,47,0.00,,FEW250,0.00,VWS V14.01,2013-02-14 23:30:00,
2013-02-14 17:35:00,57.5,38.0,30.03,WSW,242,3.0,8.0,48,0.00,,FEW250,0.00,VWS V14.01,2013-02-14 23:35:00,
2013-02-14 17:40:00,57.3,37.8,30.03,SW,223,2.0,10.0,48,0.00,,FEW250,0.00,VWS V14.01,2013-02-14 23:40:00,
2013-02-14 17:45:00,57.1,38.1,30.04,SW,226,1.0,7.0,49,0.00,,FEW250,0.00,VWS V14.01,2013-02-14 23:45:00,
2013-02-14 17:50:00,56.9,38.0,30.04,SW,226,2.0,6.0,49,0.00,,FEW250,0.00,VWS V14.01,2013-02-14 23:50:00,
2013-02-14 17:55:00,56.6,38.2,30.04,SSW,211,2.0,5.0,50,0.00,,FEW250,0.00,VWS V14.01,2013-02-14 23:55:00,
2013-02-14 18:00:00,56.4,38.5,30.04,SW,231,0.0,6.0,51,0.00,,FEW250,0.00,VWS V14.01,2013-02-15 00:00:00,
2013-02-14 18:05:00,56.0,38.6,30.04,SW,219,5.0,6.0,52,0.00,,FEW250,0.00,VWS V14.01,2013-02-15 00:05:00,
2013-02-14 18:10:00,55.9,38.5,30.05,SW,230,2.0,6.0,52,0.00,,FEW250,0.00,VWS V14.01,2013-02-15 00:10:00,
2013-02-14 18:15:00,55.8,38.9,30.05,SW,234,2.0,6.0,53,0.00,,FEW250,0.00,VWS V14.01,2013-02-15 00:15:00,
2013-02-14 18:20:00,55.6,38.8,30.05,WSW,238,0.0,4.0,53,0.00,,FEW250,0.00,VWS V14.01,2013-02-15 00:20:00,
2013-02-14 18:25:00,55.5,38.7,30.05,SSW,213,5.0,5.0,53,0.00,,FEW250,0.00,VWS V14.01,2013-02-15 00:25:00,
2013-02-14 18:30:00,55.3,39.0,30.05,WSW,239,0.0,5.0,54,0.00,,FEW250,0.00,VWS V14.01,2013-02-15 00:30:00,
2013-02-14 18:35:00,54.9,38.6,30.05,SW,236,0.0,2.0,54,0.00,,FEW250,0.00,VWS V14.01,2013-02-15 00:35:00,
2013-02-14 18:40:00,54.3,38.5,30.05,SW,215,1.0,3.0,55,0.00,,FEW250,0.00,VWS V14.01,2013-02-15 00:40:00,
2013-02-14 18:45:00,54.1,38.8,30.05,SW,231,1.0,4.0,56,0.00,,FEW250,0.00,VWS V14.01,2013-02-15 00:45:00,
2013-02-14 18:50:00,54.0,38.7,30.05,SW,234,0.0,7.0,56,0.00,,FEW250,0.00,VWS V14.01,2013-02-15 00:50:00,
2013-02-14 18:55:00,53.5,38.7,30.05,SW,230,0.0,2.0,57,0.00,,FEW250,0.00,VWS V14.01,2013-02-15 00:55:00,
2013-02-14 19:00:00,53.5,39.1,30.05,SSW,199,0.0,2.0,58,0.00,,FEW250,0.00,VWS V14.01,2013-02-15 01:00:00,
2013-02-14 19:05:00,53.3,38.9,30.05,South,186,0.0,3.0,58,0.00,,FEW250,0.00,VWS V14.01,2013-02-15 01:05:00,
2013-02-14 19:10:00,53.0,38.6,30.05,South,186,0.0,1.0,58,0.00,,FEW250,0.00,VWS V14.01,2013-02-15 01:10:00,
2013-02-14 19:15:00,52.8,38.9,30.05,South,186,0.0,0.0,59,0.00,,FEW250,0.00,VWS V14.01,2013-02-15 01:15:00,
2013-02-14 19:20:00,52.4,38.9,30.05,South,186,0.0,0.0,60,0.00,,FEW250,0.00,VWS V14.01,2013-02-15 01:20:00,
2013-02-14 19:25:00,51.9,38.9,30.05,South,186,0.0,0.0,61,0.00,,FEW250,0.00,VWS V14.01,2013-02-15 01:25:00,
2013-02-14 19:30:00,51.5,38.5,30.05,South,186,0.0,1.0,61,0.00,,FEW250,0.00,VWS V14.01,2013-02-15 01:30:00,
2013-02-14 19:35:00,51.3,38.7,30.05,South,186,0.0,0.0,62,0.00,,FEW250,0.00,VWS V14.01,2013-02-15 01:35:00,
2013-02-14 19:40:00,51.1,38.5,30.05,South,186,0.0,1.0,62,0.00,,FEW250,0.00,VWS V14.01,2013-02-15 01:40:00,
2013-02-14 19:45:00,50.7,38.6,30.05,South,186,0.0,0.0,63,0.00,,FEW250,0.00,VWS V14.01,2013-02-15 01:45:00,
2013-02-14 19:50:00,50.3,38.2,30.05,South,186,0.0,0.0,63,0.00,,FEW250,0.00,VWS V14.01,2013-02-15 01:50:00,
2013-02-14 19:55:00,49.8,38.1,30.06,South,186,0.0,0.0,64,0.00,,FEW250,0.00,VWS V14.01,2013-02-15 01:55:00,
2013-02-14 20:00:00,49.4,38.1,30.05,South,186,0.0,0.0,65,0.00,,FEW250,0.00,VWS V14.01,2013-02-15 02:00:00,
2013-02-14 20:05:00,48.7,38.2,30.05,South,186,0.0,0.0,67,0.00,,FEW250,0.00,VWS V14.01,2013-02-15 02:05:00,
2013-02-14 20:10:00,48.1,38.0,30.05,South,186,0.0,0.0,68,0.00,,FEW250,0.00,VWS V14.01,2013-02-15 02:10:00,
2013-02-14 20:15:00,47.8,38.1,30.05,South,186,0.0,0.0,69,0.00,,FEW250,0.00,VWS V14.01,2013-02-15 02:15:00,
2013-02-14 20:20:00,47.2,37.9,30.05,South,186,0.0,0.0,70,0.00,,FEW250,0.00,VWS V14.01,2013-02-15 02:20:00,
2013-02-14 20:25:00,46.8,37.9,30.05,South,186,0.0,0.0,71,0.00,,FEW250,0.00,VWS V14.01,2013-02-15 02:25:00,
2013-02-14 20:30:00,46.8,37.9,30.05,South,186,0.0,0.0,71,0.00,,FEW250,0.00,VWS V14.01,2013-02-15 02:30:00,
2013-02-14 20:35:00,46.3,37.4,30.06,South,186,0.0,0.0,71,0.00,,FEW250,0.00,VWS V14.01,2013-02-15 02:35:00,
2013-02-14 20:40:00,45.8,37.3,30.06,South,186,0.0,0.0,72,0.00,,FEW250,0.00,VWS V14.01,2013-02-15 02:40:00,
2013-02-14 20:45:00,45.5,37.4,30.06,South,186,0.0,0.0,73,0.00,,FEW250,0.00,VWS V14.01,2013-02-15 02:45:00,
2013-02-14 20:50:00,45.1,37.7,30.06,South,186,0.0,0.0,75,0.00,,FEW250,0.00,VWS V14.01,2013-02-15 02:50:00,
2013-02-14 20:55:00,44.7,37.3,30.06,South,186,0.0,0.0,75,0.00,,FEW250,0.00,VWS V14.01,2013-02-15 02:55:00,
2013-02-14 21:00:00,44.5,37.1,30.06,South,186,0.0,0.0,75,0.00,,FEW250,0.00,VWS V14.01,2013-02-15 03:00:00,
2013-02-14 21:05:00,44.1,37.0,30.06,South,186,0.0,0.0,76,0.00,,CLR,0.00,VWS V14.01,2013-02-15 03:05:00,
2013-02-14 21:10:00,44.0,37.3,30.06,South,186,0.0,0.0,77,0.00,,CLR,0.00,VWS V14.01,2013-02-15 03:10:00,
2013-02-14 21:15:00,43.8,37.1,30.06,South,186,0.0,0.0,77,0.00,,CLR,0.00,VWS V14.01,2013-02-15 03:15:00,
2013-02-14 21:20:00,43.6,36.9,30.06,South,186,0.0,0.0,77,0.00,,CLR,0.00,VWS V14.01,2013-02-15 03:20:00,
2013-02-14 21:25:00,43.3,36.9,30.06,South,186,0.0,0.0,78,0.00,,CLR,0.00,VWS V14.01,2013-02-15 03:25:00,
2013-02-14 21:30:00,43.5,37.4,30.07,South,186,0.0,0.0,79,0.00,,CLR,0.00,VWS V14.01,2013-02-15 03:30:00,
2013-02-14 21:35:00,43.8,37.4,30.07,SSW,209,0.0,3.0,78,0.00,,CLR,0.00,VWS V14.01,2013-02-15 03:35:00,
2013-02-14 21:40:00,44.4,37.7,30.07,SSW,208,0.0,0.0,77,0.00,,CLR,0.00,VWS V14.01,2013-02-15 03:40:00,
2013-02-14 21:45:00,44.2,37.1,30.07,SSW,209,0.0,0.0,76,0.00,,CLR,0.00,VWS V14.01,2013-02-15 03:45:00,
2013-02-14 21:50:00,44.1,37.4,30.07,SSW,209,0.0,0.0,77,0.00,,CLR,0.00,VWS V14.01,2013-02-15 03:50:00,
2013-02-14 21:55:00,44.2,37.5,30.07,SSW,209,0.0,0.0,77,0.00,,CLR,0.00,VWS V14.01,2013-02-15 03:55:00,
2013-02-14 22:00:00,44.5,37.4,30.07,SSW,208,0.0,1.0,76,0.00,,CLR,0.00,VWS V14.01,2013-02-15 04:00:00,
2013-02-14 22:05:00,44.9,37.5,30.07,SSW,208,0.0,0.0,75,0.00,,CLR,0.00,VWS V14.01,2013-02-15 04:05:00,
2013-02-14 22:10:00,45.6,37.8,30.07,SSW,208,0.0,1.0,74,0.00,,CLR,0.00,VWS V14.01,2013-02-15 04:10:00,
2013-02-14 22:15:00,46.1,37.9,30.07,SW,227,0.0,0.0,73,0.00,,CLR,0.00,VWS V14.01,2013-02-15 04:15:00,
2013-02-14 22:20:00,46.4,37.9,30.07,SW,217,0.0,0.0,72,0.00,,CLR,0.00,VWS V14.01,2013-02-15 04:20:00,
2013-02-14 22:25:00,46.7,38.2,30.07,WSW,240,0.0,3.0,72,0.00,,CLR,0.00,VWS V14.01,2013-02-15 04:25:00,
2013-02-14 22:30:00,47.0,38.1,30.07,SW,224,0.0,2.0,71,0.00,,CLR,0.00,VWS V14.01,2013-02-15 04:30:00,
2013-02-14 22:35:00,47.1,37.8,30.07,SW,224,0.0,1.0,70,0.00,,CLR,0.00,VWS V14.01,2013-02-15 04:35:00,
2013-02-14 22:40:00,46.8,37.5,30.07,SW,219,0.0,0.0,70,0.00,,CLR,0.00,VWS V14.01,2013-02-15 04:40:00,
2013-02-14 22:45:00,46.2,37.3,30.07,SW,219,0.0,0.0,71,0.00,,CLR,0.00,VWS V14.01,2013-02-15 04:45:00,
2013-02-14 22:50:00,45.9,37.4,30.07,SW,219,0.0,0.0,72,0.00,,CLR,0.00,VWS V14.01,2013-02-15 04:50:00,
2013-02-14 22:55:00,45.7,37.5,30.07,SW,219,0.0,0.0,73,0.00,,CLR,0.00,VWS V14.01,2013-02-15 04:55:00,
2013-02-14 23:00:00,45.3,37.2,30.07,SW,219,0.0,0.0,73,0.00,,CLR,0.00,VWS V14.01,2013-02-15 05:00:00,
2013-02-14 23:05:00,45.0,37.2,30.07,SW,219,0.0,0.0,74,0.00,,CLR,0.00,VWS V14.01,2013-02-15 05:05:00,
2013-02-14 23:10:00,44.7,37.3,30.07,SW,219,0.0,1.0,75,0.00,,CLR,0.00,VWS V14.01,2013-02-15 05:10:00,
2013-02-14 23:15:00,44.5,37.1,30.07,SW,219,0.0,0.0,75,0.00,,CLR,0.00,VWS V14.01,2013-02-15 05:15:00,
2013-02-14 23:20:00,44.2,36.8,30.07,SW,219,0.0,0.0,75,0.00,,CLR,0.00,VWS V14.01,2013-02-15 05:20:00,
2013-02-14 23:25:00,44.3,37.2,30.07,SW,219,0.0,0.0,76,0.00,,CLR,0.00,VWS V14.01,2013-02-15 05:25:00,
2013-02-14 23:30:00,44.5,37.4,30.07,SW,219,0.0,0.0,76,0.00,,CLR,0.00,VWS V14.01,2013-02-15 05:30:00,
2013-02-14 23:35:00,44.4,37.3,30.07,SW,219,0.0,0.0,76,0.00,,CLR,0.00,VWS V14.01,2013-02-15 05:35:00,
2013-02-14 23:40:00,44.1,37.4,30.08,SW,219,0.0,0.0,77,0.00,,CLR,0.00,VWS V14.01,2013-02-15 05:40:00,
2013-02-14 23:45:00,44.3,37.6,30.08,WSW,243,0.0,1.0,77,0.00,,CLR,0.00,VWS V14.01,2013-02-15 05:45:00,
2013-02-14 23:50:00,44.3,37.6,30.08,WSW,243,0.0,0.0,77,0.00,,CLR,0.00,VWS V14.01,2013-02-15 05:50:00,
2013-02-14 23:55:00,43.8,37.4,30.08,WSW,243,0.0,0.0,78,0.00,,CLR,0.00,VWS V14.01,2013-02-15 05:55:00,